Regional Weather Roundup
Issued by NWS Wakefield, VA

Home | Current Version | Previous Version | Text Only | Print | Product List | Glossary Off
Versions: 1 2 3 4 5 6 7 8 9 10 11 12 13 14 15 16 17 18 19 20 21 22 23 24 25 26 27 28 29 30 31 32 33 34 35 36 37 38 39 40 41 42 43 44 45 46 47 48 49 50

000
ASUS41 KAKQ 261815
RWRAKQ

REGIONAL WEATHER ROUNDUP
NATIONAL WEATHER SERVICE WAKEFIELD VA
200 PM EDT SUN MAR 26 2017

Note: "fair" indicates few or no clouds below 12,000 feet with no
significant weather and/or obstructions to visibility. * = Denotes
station may not report precipitation (e.g., rain,snow,etc.),
thunder or fog.

VAZ042-051-052>054-056-261900-
NORTHERN VIRGINIA

CITY           SKY/WX    TMP DP  RH WIND       PRES   REMARKS
WASH NATIONAL  CLOUDY    49  45  86 E12       30.33F
DULLES         CLOUDY    48  43  82 E10       30.30F
FORT BELVOIR   CLOUDY    48  45  87 VRB3      30.31F
QUANTICO       CLOUDY    50  47  89 NE10      30.32F
FREDERICKSBRG* CLOUDY    52  48  86 NE7       30.28F
STAFFORD*      CLOUDY    50  48  92 NE7       30.34F FOG
WARRENTON      CLOUDY    51  44  77 E6        30.28F
CULPEPER*      CLOUDY    50  47  90 E6        30.28F FOG
MANASSAS*      CLOUDY    49  45  86 E12       30.30F
LEESBURG*      CLOUDY    48  46  93 SE8       30.31F FOG
WINCHESTER     CLOUDY    46  43  87 E10       30.25F
FRONT ROYAL*   MOCLDY    54  46  76 E12G17    30.21F
LURAY*         PTCLDY    63  52  67 NE9       30.18F
$$

VAZ048-049-060>072-079>083-261900-
CENTRAL AND SOUTH CENTRAL VIRGINIA

CITY           SKY/WX    TMP DP  RH WIND       PRES   REMARKS
RICHMOND       CLOUDY    69  55  60 NE7       30.23F
CHESTERFIELD*  CLOUDY   N/A N/A N/A S7G16     30.23F
PETERSBURG*    CLOUDY    70  51  50 CALM      30.22F
HANOVER        PTSUNNY   65  50  58 NE8       30.26F
TAPPAHANNOCK*  PTSUNNY   57  44  62 NE8       30.28F
QUINTON*       MOCLDY    66  55  67 NE6       30.24F
CHARLOTTSVILLE CLOUDY    58  47  66 NE10      30.24F
GORDONSVILLE*  CLOUDY    55  48  76 NE6       30.25F
ORANGE*        CLOUDY    52  46  82 NE5       30.27F
LOUISA*        CLOUDY    63  52  67 E8        30.24F
BUMPASS*       CLOUDY    59  50  71 E5        30.25F
FARMVILLE*     PTSUNNY   73  53  47 S10       30.18F
CREWE*         CLOUDY    71  52  51 S9        30.21F
FORT PICKETT*  CLOUDY    71  45  38 S9        30.21F
CHASE CITY*    CLOUDY    71  47  42 S5        30.20F
CLARKSVILLE*   CLOUDY    72  52  49 S5        30.20F
SOUTH HILL*    CLOUDY    70  54  56 S6        30.27F
LAWRENCEVILLE* CLOUDY    71  51  50 SE5       30.21F
EMPORIA*       CLOUDY    70  52  52 S8        30.24F
$$

VAZ088>098-261900-
SOUTHEAST VIRGINIA

CITY           SKY/WX    TMP DP  RH WIND       PRES   REMARKS
NORFOLK        MOSUNNY   60  49  66 NE12      30.24F
VIRGINIA BEACH PTSUNNY   58  49  72 E9        30.25F
NORFOLK NAVAL  PTSUNNY   61  49  64 E12       30.26F
WEST POINT*    MOSUNNY   65  51  60 E9        30.27F
SALUDA*        MOCLDY    57  52  85 E7        30.28F
NEWPORT NEWS   CLOUDY    64  53  67 E13       30.25F
LANGLEY AFB    CLOUDY    60  53  77 NE13      30.25F
FORT EUSTIS    CLOUDY    71  55  57 E7        30.22F
WILLIAMSBURG*  CLOUDY    73  57  56 CALM      30.24F
HR EXEC AP*    MOCLDY    75  52  43 S8        30.21F
FRANKLIN*      CLOUDY    73  52  46 S8        30.23F
US460-WAKEFLD  CLOUDY    71  54  54 S5        30.22F
$$

VAZ020-022-025-037-045-261900-
WEST CENTRAL AND SOUTHWEST VIRGINIA

CITY           SKY/WX    TMP DP  RH WIND       PRES   REMARKS
STAUNTON*      CLOUDY    65  50  58 S14G20    30.19F
WAYNESBORO*    MOCLDY    58  49  71 SE15G23   30.20S
HOT SPRINGS VA CLOUDY    54  45  71 S13G18    30.20F
LYNCHBURG      MOSUNNY   69  53  56 S12       30.19F
DANVILLE       PTSUNNY   72  50  45 S9G17     30.17F
SOUTH BOSTON*  FAIR      74  47  37 S8G17     30.19F
MARTINSVILLE   CLOUDY    67  50  54 S3        30.19F
ROANOKE        CLOUDY    66  52  60 S14       30.19F
BLACKSBURG     RAIN      59  54  85 S5        30.21F
DUBLIN*        LGT RAIN  58  55  88 S5        30.19F
MARION*        CLOUDY    63  55  74 SE6       30.17F
HILLSVILLE*    LGT RAIN  55  55  99 S9G16     30.17F
RICHLANDS*     MOCLDY    66  53  62 S8G18     30.11F
WISE*          CLOUDY    63  50  63 S10G17    30.09F
ABINGDON*      CLOUDY    69  52  55 S8        30.09F
$$

MDZ021>025-VAZ099-100-261900-
SOUTHERN MARYLAND AND THE DELMARVA PENINSULA

CITY           SKY/WX    TMP DP  RH WIND       PRES   REMARKS
PATUXENT RIVER CLOUDY    51  49  92 NE10      30.30F
BAY BRIDGE APT CLOUDY    46  43  87 E10G18    30.33F FOG
LEONARDTOWN    CLOUDY    50  45  81 NE3       30.32S
DOVER          CLOUDY    47  47 100 NE16      30.34F
GEORGETOWN     CLOUDY    46  44  93 NE10      30.35S FOG
EASTON         CLOUDY    48  45  87 E15G22    30.37F
CAMBRIDGE      CLOUDY    50  46  87 E12       30.31F
SALISBURY      CLOUDY    50  48  93 NE14      30.31F
OCEAN CITY     CLOUDY    48  45  89 NE13      30.32F FOG
WALLOPS ISLAND CLOUDY    51  50  96 NE16      30.30F FOG
ACCOMACK*      PTSUNNY   60  52  74 E9        30.28F
$$

NCZ012>017-030>032-261900-
NORTH CENTRAL AND EASTERN NORTH CAROLINA

CITY           SKY/WX    TMP DP  RH WIND       PRES   REMARKS
ROANOKE RAPIDS MOCLDY    70  54  56 S9        30.22F
RALEIGH        PTSUNNY   74  49  41 SW12G23   30.20F
ELIZABETH CITY PTSUNNY   73  52  47 CALM      30.24F
AHOSKIE*         N/A     72  50  46 S5        30.22F
EDENTON*       CLOUDY    73  53  48 SE5       30.24F
CURRITUCK*     CLOUDY    74  50  42 S3        30.25F
KILL DEVIL HLS NOT AVBL
MANTEO         MOSUNNY   73  53  49 S12       30.25F
CAPE HATTERAS  MOSUNNY   74  54  49 S6        30.26F
TARBORO*       NOT AVBL
GOLDSBORO      LGT RAIN  75  50  41 S9        30.20F
WASHINGTON     CLOUDY    74  51  44 S10       30.22F
GREENVILLE     CLOUDY    73  50  43 SW8       30.23F
NEW BERN       CLOUDY    76  51  41 SW13      30.24F
WILMINGTON     CLOUDY    74  54  49 SE9G20    30.22F
$$

VAZ048-261900-
ELSEWHERE

CITY           SKY/WX    TMP DP  RH WIND       PRES   REMARKS
HARRISBURG PA  CLOUDY    46  41  82 SE16      30.33F
BALTIMORE      CLOUDY    47  45  93 E15       30.33F FOG
ANNAPOLIS      CLOUDY    47  44  90 E14       30.33F
ANDREWS AFB    CLOUDY    46  43  87 E10       30.31F
PHILADELPHIA   CLOUDY    44  38  79 E15       30.39F
HENDERSON NC   MOSUNNY   70  49  46 SW10      30.20F
GREENSBORO     CLOUDY    69  52  54 S10       30.17F
ROCKY MOUNT    CLOUDY    72  53  51 S10       30.22F
$$

VAZ100-261900-
MARINE

STATION/POSITION TIME  TEMP    WIND        PRES    WAVE   SWELL
                       AIR SEA DIR/SP/G            HT/PER HT/PER
                 (UTC) (F)     (DEG/KT/KT) (MB)    (FT/S) (FT/S)
CAPE MAY NJ      1748   45 44   60/ 12/ 19 1027.3F
LEWES DE         1742   43 46   80/ 21/ 23 1027.3F
OCEAN-CITY-INLET 1742   45 44   60/  5/ 11 1027.2F
WACHAPREAGUE VA  1742   51 57   40/ 15/ 18 1025.2F
THOMAS POINT MD  1800   46 45   90/  9/ 12   N/A
GOOSES REEF MD   1800   46 45   80/  8/ 10 1027.3    1/ 2
COVE POINT MD    1742   48     100/  8/  9 1027.1F
SOLOMONS ISLAND  1742   49 47   60/  6/  9   N/A
BISHOPS HEAD MD  1748   52 50   60/  7/  9 1026.4F
PINEY POINT MD   1748           80/  6/  8   N/A
POTOMAC MD       1800   49 47   50/ 10/ 14 1025.1    1
CAMBRIDGE MD     1748   48 48   50/ 11/ 12 1026.1F
LEWISETTA VA     1742   49 49   70/  7/  8 1025.8F
RAPPAHANNOCK LGT 1748           10/ 10/ 10 1025.6F
STINGRAY PT      1800   49 49   30/ 10/ 12 1025.6    1
YORK RVR RNG VA  1742   53      60/ 12/ 13 1024.1F
YORKTOWN VA      1742   53 50   80/ 10/ 12 1024.3F
JAMESTOWN VA     1800   66 55   70/  6/ 10   N/A     0
DOMINION TERM VA 1742   54      70/ 14/ 17 1024.5F
KIPTOPEKE VA     1742      49   90/ 11/ 14   N/A
CHES BAY BRIDGE  1748   49 48   80/ 12/ 13 1024.7F
CAPE HENRY VA    1748   48      70/  9/ 10   N/A
WILLOUBY STN VA  1748   52      90/ 14/ 15 1025.2F
S CRANEY ISL VA  1742   60      60/ 10/ 12 1024.0F
CAPE HENRY BUOY  1742      50                N/A     2/18
CAPE CHARLES BUO 1751      47                N/A     2/ 6
OFFSHORE WE BUOY 1751      51                N/A     2/ 6
64NM E OF VA BCH 1750   56 51  120/  2/  4 1025.2F   2/ 8   2/ 8
DUCK PIER NC     1748   59 48  120/  7/  9 1024.2F
44100 DUCK FRF   1735      51                N/A     2/ 9
44056 DUCK FRF   1730      51                N/A     2/20
OREGON INLET NC  1742   68 55  190/  7/ 10 1024.9F
HATTERAS NC      1748   71 58  160/  7/  9 1024.4F
DIAMOND SHLS NC  1650   70 74  170/  8/ 10 1025.3    3/ 8   3/ 8
CAPE LOOKOUT NC  1800   66     100/  8/  8 1023.9F
$$



USA.gov is the U.S. government's official web portal to all federal, state and local government web resources and services.